Location: ??? ?????
(30.6482°N, 60.5850°E)
Time: 18:49:35
(UTC+00:00)

Nadezhda 1 Rocket - Pass Details

Date: 09 April 2020
Orbit: 941 x 1006 km, 83.0° (Epoch: 05 June)

Event Time Altitude Azimuth Distance (km) Brightness Sun altitude
Rises 15:42:24 0° 190° (S) 3,717 6.9 -17.5°
Reaches altitude 10° 15:44:56 10° 193° (SSW) 2,771 6.3 -18.0°
Maximum altitude 15:51:17 70° 276° (W) 1,064 4.3 -19.3°
Drops below altitude 10° 15:57:38 10° 0° (N) 2,767 6.6 -20.6°
Sets 16:00:11 0° 3° (N) 3,712 7.3 -21.1°
